Time,TemperatureF,DewpointF,PressureIn,WindDirection,WindDirectionDegrees,WindSpeedMPH,WindSpeedGustMPH,Humidity,HourlyPrecipIn,Conditions,Clouds,dailyrainin,SoftwareType,DateUTC
2013-05-13 00:00:00,41.8,30.1,29.64,NW,315,5.1,6.5,63,0.00,,,0.00,WUHU216HW,2013-05-13 04:00:00,
2013-05-13 00:01:00,41.8,30.1,29.64,SW,225,3.8,6.5,63,0.00,,,0.00,WUHU216HW,2013-05-13 04:01:00,
2013-05-13 00:03:00,42.1,30.0,29.64,SW,225,5.4,7.2,62,0.00,,,0.00,WUHU216HW,2013-05-13 04:03:00,
2013-05-13 00:08:00,42.5,30.0,29.64,SSW,203,3.6,7.2,61,0.00,,,0.00,WUHU216HW,2013-05-13 04:08:00,
2013-05-13 00:13:00,42.1,30.4,29.64,SE,135,8.5,9.4,63,0.00,,,0.00,WUHU216HW,2013-05-13 04:13:00,
2013-05-13 00:18:00,41.2,29.5,29.64,South,180,5.4,11.4,63,0.00,,,0.00,WUHU216HW,2013-05-13 04:18:00,
2013-05-13 00:23:00,41.6,29.5,29.64,South,180,10.7,11.4,62,0.00,,,0.00,WUHU216HW,2013-05-13 04:23:00,
2013-05-13 00:28:00,41.9,29.4,29.64,SSW,203,4.9,11.4,61,0.00,,,0.00,WUHU216HW,2013-05-13 04:28:00,
2013-05-13 00:33:00,41.6,29.9,29.64,SSE,158,11.4,11.4,63,0.00,,,0.00,WUHU216HW,2013-05-13 04:33:00,
2013-05-13 00:38:00,40.9,29.6,29.65,SSE,158,10.1,12.1,64,0.00,,,0.00,WUHU216HW,2013-05-13 04:38:00,
2013-05-13 00:44:00,40.7,29.1,29.65,SSW,203,8.9,12.1,63,0.00,,,0.00,WUHU216HW,2013-05-13 04:44:00,
2013-05-13 00:49:00,41.0,29.0,29.64,South,180,10.3,16.3,62,0.00,,,0.00,WUHU216HW,2013-05-13 04:49:00,
2013-05-13 00:54:00,41.2,28.5,29.65,SSW,203,5.6,16.3,60,0.00,,,0.00,WUHU216HW,2013-05-13 04:54:00,
2013-05-13 00:59:00,41.4,28.6,29.65,South,180,12.1,15.4,60,0.00,,,0.00,WUHU216HW,2013-05-13 04:59:00,
2013-05-13 01:04:00,41.4,29.0,29.65,SSW,203,7.2,12.3,61,0.00,,,0.00,WUHU216HW,2013-05-13 05:04:00,
2013-05-13 01:09:00,41.2,28.8,29.65,South,180,4.5,11.0,61,0.00,,,0.00,WUHU216HW,2013-05-13 05:09:00,
2013-05-13 01:14:00,41.0,29.0,29.65,South,180,9.4,9.8,62,0.00,,,0.00,WUHU216HW,2013-05-13 05:14:00,
2013-05-13 01:20:00,40.9,28.8,29.65,South,180,3.8,13.0,62,0.00,,,0.00,WUHU216HW,2013-05-13 05:20:00,
2013-05-13 01:25:00,40.7,28.6,29.65,SSE,158,10.5,13.0,62,0.00,,,0.00,WUHU216HW,2013-05-13 05:25:00,
2013-05-13 01:30:00,40.7,29.1,29.65,SSW,203,6.3,12.1,63,0.00,,,0.00,WUHU216HW,2013-05-13 05:30:00,
2013-05-13 01:35:00,40.3,28.7,29.65,SSW,203,8.5,12.1,63,0.00,,,0.00,WUHU216HW,2013-05-13 05:35:00,
2013-05-13 01:40:00,40.3,29.1,29.65,SSE,158,8.1,11.9,64,0.00,,,0.00,WUHU216HW,2013-05-13 05:40:00,
2013-05-13 01:45:00,40.3,28.7,29.65,SSE,158,5.6,11.4,63,0.00,,,0.00,WUHU216HW,2013-05-13 05:45:00,
2013-05-13 01:50:00,40.1,28.9,29.65,South,180,6.7,11.4,64,0.00,,,0.00,WUHU216HW,2013-05-13 05:50:00,
2013-05-13 01:55:00,40.0,28.4,29.65,SSE,158,4.0,10.1,63,0.00,,,0.00,WUHU216HW,2013-05-13 05:55:00,
2013-05-13 02:00:00,39.6,28.4,29.65,South,180,8.5,9.8,64,0.00,,,0.00,WUHU216HW,2013-05-13 06:00:00,
2013-05-13 02:05:00,39.6,28.4,29.64,South,180,5.6,10.1,64,0.00,,,0.00,WUHU216HW,2013-05-13 06:05:00,
2013-05-13 02:10:00,39.4,28.5,29.64,SSE,158,4.0,10.5,65,0.00,,,0.00,WUHU216HW,2013-05-13 06:10:00,
2013-05-13 02:15:00,39.2,28.4,29.64,SE,135,6.7,10.5,65,0.00,,,0.00,WUHU216HW,2013-05-13 06:15:00,
2013-05-13 02:20:00,39.2,28.4,29.64,SSE,158,6.5,9.2,65,0.00,,,0.00,WUHU216HW,2013-05-13 06:20:00,
2013-05-13 02:25:00,39.2,28.7,29.64,ESE,113,6.3,9.2,66,0.00,,,0.00,WUHU216HW,2013-05-13 06:25:00,
2013-05-13 02:30:00,38.9,28.5,29.64,SE,135,5.1,8.7,66,0.00,,,0.00,WUHU216HW,2013-05-13 06:30:00,
2013-05-13 02:35:00,38.9,28.5,29.64,East,90,3.4,8.7,66,0.00,,,0.00,WUHU216HW,2013-05-13 06:35:00,
2013-05-13 02:40:00,38.7,28.6,29.64,SW,225,3.4,8.7,67,0.00,,,0.00,WUHU216HW,2013-05-13 06:40:00,
2013-05-13 02:45:00,38.5,28.4,29.64,SSW,203,5.1,8.5,67,0.00,,,0.00,WUHU216HW,2013-05-13 06:45:00,
2013-05-13 02:50:00,38.5,28.4,29.64,SE,135,3.8,8.5,67,0.00,,,0.00,WUHU216HW,2013-05-13 06:50:00,
2013-05-13 02:55:00,38.3,28.7,29.64,SSE,158,8.3,10.5,68,0.00,,,0.00,WUHU216HW,2013-05-13 06:55:00,
2013-05-13 03:00:00,38.3,28.7,29.64,South,180,7.4,10.5,68,0.00,,,0.00,WUHU216HW,2013-05-13 07:00:00,
2013-05-13 03:05:00,38.2,28.9,29.64,South,180,8.1,10.7,69,0.00,,,0.00,WUHU216HW,2013-05-13 07:05:00,
2013-05-13 03:10:00,38.3,29.1,29.65,South,180,11.6,12.8,69,0.00,,,0.00,WUHU216HW,2013-05-13 07:10:00,
2013-05-13 03:15:00,38.5,28.8,29.64,SSE,158,12.1,12.8,68,0.00,,,0.00,WUHU216HW,2013-05-13 07:15:00,
2013-05-13 03:20:00,38.7,28.6,29.64,SSW,203,11.0,14.1,67,0.00,,,0.00,WUHU216HW,2013-05-13 07:20:00,
2013-05-13 03:25:00,38.9,28.8,29.65,SSE,158,13.4,14.1,67,0.00,,,0.00,WUHU216HW,2013-05-13 07:25:00,
2013-05-13 03:30:00,39.2,28.4,29.64,South,180,11.4,16.3,65,0.00,,,0.00,WUHU216HW,2013-05-13 07:30:00,
2013-05-13 03:35:00,39.6,28.7,29.64,SSW,203,10.7,16.8,65,0.00,,,0.00,WUHU216HW,2013-05-13 07:35:00,
2013-05-13 03:40:00,39.8,28.2,29.64,South,180,11.9,17.4,63,0.00,,,0.00,WUHU216HW,2013-05-13 07:40:00,
2013-05-13 03:45:00,40.0,28.4,29.64,SW,225,8.3,17.7,63,0.00,,,0.00,WUHU216HW,2013-05-13 07:45:00,
2013-05-13 03:50:00,40.1,28.9,29.64,South,180,8.7,17.7,64,0.00,,,0.00,WUHU216HW,2013-05-13 07:50:00,
2013-05-13 03:55:00,40.1,29.3,29.64,SSW,203,8.7,13.2,65,0.00,,,0.00,WUHU216HW,2013-05-13 07:55:00,
2013-05-13 04:00:00,40.1,29.3,29.64,WSW,248,8.3,13.6,65,0.00,,,0.00,WUHU216HW,2013-05-13 08:00:00,
2013-05-13 04:05:00,40.1,29.3,29.64,SSW,203,12.8,13.6,65,0.00,,,0.00,WUHU216HW,2013-05-13 08:05:00,
2013-05-13 04:10:00,40.1,28.9,29.64,South,180,9.2,13.4,64,0.00,,,0.00,WUHU216HW,2013-05-13 08:10:00,
2013-05-13 04:15:00,40.1,28.5,29.65,SSW,203,9.8,18.3,63,0.00,,,0.00,WUHU216HW,2013-05-13 08:15:00,
2013-05-13 04:20:00,40.1,28.5,29.64,South,180,12.5,18.3,63,0.00,,,0.00,WUHU216HW,2013-05-13 08:20:00,
2013-05-13 04:25:00,40.1,27.7,29.65,South,180,8.7,17.2,61,0.00,,,0.00,WUHU216HW,2013-05-13 08:25:00,
2013-05-13 04:30:00,40.0,27.2,29.65,WSW,248,15.2,18.1,60,0.00,,,0.00,WUHU216HW,2013-05-13 08:30:00,
2013-05-13 04:35:00,40.0,26.7,29.65,WSW,248,13.6,20.1,59,0.00,,,0.00,WUHU216HW,2013-05-13 08:35:00,
2013-05-13 04:40:00,40.3,26.2,29.65,SSW,203,5.4,20.1,57,0.00,,,0.00,WUHU216HW,2013-05-13 08:40:00,
2013-05-13 04:45:00,40.3,25.7,29.66,South,180,9.4,15.9,56,0.00,,,0.00,WUHU216HW,2013-05-13 08:45:00,
2013-05-13 04:50:00,40.3,25.7,29.66,SSW,203,9.2,13.9,56,0.00,,,0.00,WUHU216HW,2013-05-13 08:50:00,
2013-05-13 04:55:00,40.3,25.3,29.66,SW,225,5.4,13.9,55,0.00,,,0.00,WUHU216HW,2013-05-13 08:55:00,
2013-05-13 05:00:00,40.3,25.7,29.66,South,180,9.4,13.4,56,0.00,,,0.00,WUHU216HW,2013-05-13 09:00:00,
2013-05-13 05:05:00,40.1,25.6,29.66,SW,225,6.5,14.1,56,0.00,,,0.00,WUHU216HW,2013-05-13 09:05:00,
2013-05-13 05:10:00,40.0,25.8,29.66,SSW,203,6.5,14.1,57,0.00,,,0.00,WUHU216HW,2013-05-13 09:10:00,
2013-05-13 05:15:00,40.1,26.0,29.67,SW,225,6.7,11.4,57,0.00,,,0.00,WUHU216HW,2013-05-13 09:15:00,
2013-05-13 05:20:00,40.3,26.6,29.67,SSW,203,8.3,11.4,58,0.00,,,0.00,WUHU216HW,2013-05-13 09:20:00,
2013-05-13 05:25:00,40.1,26.5,29.67,SSW,203,4.3,10.1,58,0.00,,,0.00,WUHU216HW,2013-05-13 09:25:00,
2013-05-13 05:30:00,40.1,26.9,29.67,WSW,248,5.6,10.1,59,0.00,,,0.00,WUHU216HW,2013-05-13 09:30:00,
2013-05-13 05:35:00,40.1,26.5,29.67,SW,225,8.1,10.5,58,0.00,,,0.00,WUHU216HW,2013-05-13 09:35:00,
2013-05-13 05:40:00,40.1,26.9,29.67,SSW,203,7.2,12.5,59,0.00,,,0.00,WUHU216HW,2013-05-13 09:40:00,
2013-05-13 05:45:00,40.3,26.6,29.67,SW,225,5.8,12.5,58,0.00,,,0.00,WUHU216HW,2013-05-13 09:45:00,
2013-05-13 05:50:00,40.7,26.6,29.67,SW,225,6.9,15.0,57,0.00,,,0.00,WUHU216HW,2013-05-13 09:50:00,
2013-05-13 05:55:00,40.3,26.2,29.68,SW,225,7.6,15.0,57,0.00,,,0.00,WUHU216HW,2013-05-13 09:55:00,
2013-05-13 06:00:00,40.1,26.5,29.69,SW,225,4.0,13.2,58,0.00,,,0.00,WUHU216HW,2013-05-13 10:00:00,
2013-05-13 06:05:00,40.1,26.5,29.69,SW,225,4.9,8.9,58,0.00,,,0.00,WUHU216HW,2013-05-13 10:05:00,
2013-05-13 06:10:00,40.7,27.0,29.69,SSW,203,3.6,8.9,58,0.00,,,0.00,WUHU216HW,2013-05-13 10:10:00,
2013-05-13 06:15:00,41.0,26.9,29.69,WSW,248,4.7,6.5,57,0.00,,,0.00,WUHU216HW,2013-05-13 10:15:00,
2013-05-13 06:20:00,40.3,26.6,29.70,SW,225,3.8,8.9,58,0.00,,,0.00,WUHU216HW,2013-05-13 10:20:00,
2013-05-13 06:25:00,40.0,25.8,29.70,SSW,203,0.0,8.9,57,0.00,,,0.00,WUHU216HW,2013-05-13 10:25:00,
2013-05-13 06:30:00,40.0,25.8,29.70,WNW,293,1.8,6.3,57,0.00,,,0.00,WUHU216HW,2013-05-13 10:30:00,
2013-05-13 06:35:00,40.0,25.4,29.70,SW,225,4.3,9.4,56,0.00,,,0.00,WUHU216HW,2013-05-13 10:35:00,
2013-05-13 06:40:00,40.1,26.0,29.70,SSW,203,4.9,9.4,57,0.00,,,0.00,WUHU216HW,2013-05-13 10:40:00,
2013-05-13 06:45:00,40.3,26.6,29.71,SSW,203,3.6,6.5,58,0.00,,,0.00,WUHU216HW,2013-05-13 10:45:00,
2013-05-13 06:50:00,40.3,26.6,29.70,SSW,203,4.5,17.9,58,0.00,,,0.00,WUHU216HW,2013-05-13 10:50:00,
2013-05-13 06:55:00,40.3,26.6,29.71,SSW,203,9.2,17.9,58,0.00,,,0.00,WUHU216HW,2013-05-13 10:55:00,
2013-05-13 07:00:00,40.5,26.8,29.71,West,270,1.1,11.4,58,0.00,,,0.00,WUHU216HW,2013-05-13 11:00:00,
2013-05-13 07:05:00,40.5,26.4,29.71,SSW,203,7.2,11.4,57,0.00,,,0.00,WUHU216HW,2013-05-13 11:05:00,
2013-05-13 07:10:00,40.7,26.6,29.71,SSE,158,6.7,8.5,57,0.00,,,0.00,WUHU216HW,2013-05-13 11:10:00,
2013-05-13 07:15:00,40.7,26.1,29.71,SW,225,4.0,12.5,56,0.00,,,0.00,WUHU216HW,2013-05-13 11:15:00,
2013-05-13 07:20:00,40.9,26.7,29.71,South,180,2.5,12.5,57,0.00,,,0.00,WUHU216HW,2013-05-13 11:20:00,
2013-05-13 07:25:00,41.0,26.5,29.72,SSW,203,13.0,13.0,56,0.00,,,0.00,WUHU216HW,2013-05-13 11:25:00,
2013-05-13 07:30:00,41.0,26.0,29.72,SSW,203,6.5,17.9,55,0.00,,,0.00,WUHU216HW,2013-05-13 11:30:00,
2013-05-13 07:35:00,41.0,25.6,29.72,SSW,203,7.8,17.9,54,0.00,,,0.00,WUHU216HW,2013-05-13 11:35:00,
2013-05-13 07:40:00,41.2,26.2,29.72,WNW,293,1.3,13.4,55,0.00,,,0.00,WUHU216HW,2013-05-13 11:40:00,
2013-05-13 07:45:00,41.2,26.2,29.72,SSW,203,7.8,9.8,55,0.00,,,0.00,WUHU216HW,2013-05-13 11:45:00,
2013-05-13 07:50:00,41.6,26.1,29.72,South,180,2.7,9.8,54,0.00,,,0.00,WUHU216HW,2013-05-13 11:50:00,
2013-05-13 07:55:00,41.6,26.1,29.72,South,180,1.8,10.5,54,0.00,,,0.00,WUHU216HW,2013-05-13 11:55:00,
2013-05-13 08:00:00,41.8,26.7,29.72,South,180,5.8,10.5,55,0.00,,,0.00,WUHU216HW,2013-05-13 12:00:00,
2013-05-13 08:05:00,41.8,25.8,29.72,South,180,5.4,10.5,53,0.00,,,0.00,WUHU216HW,2013-05-13 12:05:00,
2013-05-13 08:10:00,41.8,25.8,29.73,South,180,7.4,11.0,53,0.00,,,0.00,WUHU216HW,2013-05-13 12:10:00,
2013-05-13 08:15:00,41.9,26.0,29.73,SSW,203,6.7,12.1,53,0.00,,,0.00,WUHU216HW,2013-05-13 12:15:00,
2013-05-13 08:20:00,41.8,25.8,29.73,SW,225,8.3,12.1,53,0.00,,,0.00,WUHU216HW,2013-05-13 12:20:00,
2013-05-13 08:25:00,42.1,26.7,29.73,SE,135,7.6,10.3,54,0.00,,,0.00,WUHU216HW,2013-05-13 12:25:00,
2013-05-13 08:30:00,42.1,26.2,29.74,SSW,203,8.5,11.6,53,0.00,,,0.00,WUHU216HW,2013-05-13 12:30:00,
2013-05-13 08:35:00,42.3,26.4,29.74,SSW,203,9.2,12.1,53,0.00,,,0.00,WUHU216HW,2013-05-13 12:35:00,
2013-05-13 08:40:00,42.3,26.4,29.74,SSW,203,6.7,12.1,53,0.00,,,0.00,WUHU216HW,2013-05-13 12:40:00,
2013-05-13 08:45:00,42.8,26.8,29.74,SSW,203,4.5,9.2,53,0.00,,,0.00,WUHU216HW,2013-05-13 12:45:00,
2013-05-13 08:50:00,42.8,26.8,29.75,SSE,158,6.5,10.1,53,0.00,,,0.00,WUHU216HW,2013-05-13 12:50:00,
2013-05-13 08:55:00,42.8,26.8,29.75,SW,225,5.8,10.1,53,0.00,,,0.00,WUHU216HW,2013-05-13 12:55:00,
2013-05-13 09:00:00,43.2,27.2,29.75,SSW,203,10.7,10.7,53,0.00,,,0.00,WUHU216HW,2013-05-13 13:00:00,
2013-05-13 09:05:00,43.4,27.4,29.75,SSW,203,2.9,10.7,53,0.00,,,0.00,WUHU216HW,2013-05-13 13:05:00,
2013-05-13 09:10:00,43.6,27.1,29.75,SSE,158,4.0,10.7,52,0.00,,,0.00,WUHU216HW,2013-05-13 13:10:00,
2013-05-13 09:15:00,43.4,26.9,29.75,SSW,203,4.3,13.0,52,0.00,,,0.00,WUHU216HW,2013-05-13 13:15:00,
2013-05-13 09:20:00,43.4,26.9,29.75,South,180,9.4,13.0,52,0.00,,,0.00,WUHU216HW,2013-05-13 13:20:00,
2013-05-13 09:25:00,43.2,26.3,29.75,SW,225,10.7,15.7,51,0.00,,,0.00,WUHU216HW,2013-05-13 13:25:00,
2013-05-13 09:30:00,43.2,26.3,29.75,SSE,158,5.6,15.7,51,0.00,,,0.00,WUHU216HW,2013-05-13 13:30:00,
2013-05-13 09:35:00,43.4,26.9,29.75,SSW,203,8.1,12.1,52,0.00,,,0.00,WUHU216HW,2013-05-13 13:35:00,
2013-05-13 09:40:00,43.4,26.5,29.75,WSW,248,7.8,10.5,51,0.00,,,0.00,WUHU216HW,2013-05-13 13:40:00,
2013-05-13 09:45:00,43.6,27.1,29.75,South,180,4.0,10.5,52,0.00,,,0.00,WUHU216HW,2013-05-13 13:45:00,
2013-05-13 09:50:00,43.7,26.8,29.76,SW,225,6.7,14.1,51,0.00,,,0.00,WUHU216HW,2013-05-13 13:50:00,
2013-05-13 09:55:00,43.7,27.3,29.76,SSW,203,4.3,14.1,52,0.00,,,0.00,WUHU216HW,2013-05-13 13:55:00,
2013-05-13 10:00:00,44.1,27.5,29.76,SSW,203,5.6,12.1,52,0.00,,,0.00,WUHU216HW,2013-05-13 14:00:00,
2013-05-13 10:06:00,44.1,26.7,29.75,WSW,248,5.8,9.8,50,0.00,,,0.00,WUHU216HW,2013-05-13 14:06:00,
2013-05-13 10:11:00,44.1,27.2,29.76,WSW,248,3.4,10.3,51,0.00,,,0.00,WUHU216HW,2013-05-13 14:11:00,
2013-05-13 10:16:00,44.8,27.8,29.76,SSW,203,4.7,10.5,51,0.00,,,0.00,WUHU216HW,2013-05-13 14:16:00,
2013-05-13 10:21:00,45.0,27.6,29.76,WSW,248,7.6,11.9,50,0.00,,,0.00,WUHU216HW,2013-05-13 14:21:00,
2013-05-13 10:26:00,45.0,27.6,29.76,SW,225,6.3,11.9,50,0.00,,,0.00,WUHU216HW,2013-05-13 14:26:00,
2013-05-13 10:31:00,45.0,27.6,29.76,SSW,203,8.5,10.1,50,0.00,,,0.00,WUHU216HW,2013-05-13 14:31:00,
2013-05-13 10:36:00,45.2,26.6,29.76,SSW,203,8.5,15.2,48,0.00,,,0.00,WUHU216HW,2013-05-13 14:36:00,
2013-05-13 10:41:00,45.2,27.1,29.76,South,180,10.1,15.2,49,0.00,,,0.00,WUHU216HW,2013-05-13 14:41:00,
2013-05-13 10:46:00,45.5,27.5,29.76,SSW,203,9.2,13.6,49,0.00,,,0.00,WUHU216HW,2013-05-13 14:46:00,
2013-05-13 10:51:00,45.4,27.3,29.77,SSW,203,12.3,15.0,49,0.00,,,0.00,WUHU216HW,2013-05-13 14:51:00,
2013-05-13 10:56:00,45.4,26.7,29.77,SSW,203,11.9,15.0,48,0.00,,,0.00,WUHU216HW,2013-05-13 14:56:00,
2013-05-13 11:01:00,45.5,27.5,29.77,SW,225,5.8,13.6,49,0.00,,,0.00,WUHU216HW,2013-05-13 15:01:00,
2013-05-13 11:06:00,45.7,27.1,29.77,SW,225,2.5,12.8,48,0.00,,,0.00,WUHU216HW,2013-05-13 15:06:00,
2013-05-13 11:11:00,45.9,27.3,29.77,SW,225,6.9,8.9,48,0.00,,,0.00,WUHU216HW,2013-05-13 15:11:00,
2013-05-13 11:16:00,45.7,27.1,29.77,SSW,203,12.5,12.5,48,0.00,,,0.00,WUHU216HW,2013-05-13 15:16:00,
2013-05-13 11:21:00,46.1,27.4,29.78,South,180,9.8,15.0,48,0.00,,,0.00,WUHU216HW,2013-05-13 15:21:00,
2013-05-13 11:26:00,46.3,27.0,29.77,SW,225,7.6,15.0,47,0.00,,,0.00,WUHU216HW,2013-05-13 15:26:00,
2013-05-13 11:31:00,46.4,28.3,29.77,SW,225,2.7,12.3,49,0.00,,,0.00,WUHU216HW,2013-05-13 15:31:00,
2013-05-13 11:36:00,46.4,27.7,29.77,SW,225,2.5,8.3,48,0.00,,,0.00,WUHU216HW,2013-05-13 15:36:00,
2013-05-13 11:41:00,46.8,27.6,29.77,SW,225,10.5,10.5,47,0.00,,,0.00,WUHU216HW,2013-05-13 15:41:00,
2013-05-13 11:46:00,46.8,27.6,29.78,SW,225,6.5,10.5,47,0.00,,,0.00,WUHU216HW,2013-05-13 15:46:00,
2013-05-13 11:51:00,47.0,28.2,29.77,SW,225,3.4,10.5,48,0.00,,,0.00,WUHU216HW,2013-05-13 15:51:00,
2013-05-13 11:56:00,47.0,27.6,29.77,WSW,248,2.9,8.5,47,0.00,,,0.00,WUHU216HW,2013-05-13 15:56:00,
2013-05-13 12:01:00,47.2,27.3,29.78,SSW,203,12.1,12.1,46,0.00,,,0.00,WUHU216HW,2013-05-13 16:01:00,
2013-05-13 12:06:00,47.2,27.8,29.78,WNW,293,5.4,12.1,47,0.00,,,0.00,WUHU216HW,2013-05-13 16:06:00,
2013-05-13 12:11:00,47.5,28.2,29.78,SW,225,11.9,12.1,47,0.00,,,0.00,WUHU216HW,2013-05-13 16:11:00,
2013-05-13 12:16:00,48.2,28.8,29.78,SW,225,4.7,11.9,47,0.00,,,0.00,WUHU216HW,2013-05-13 16:16:00,
2013-05-13 12:21:00,48.4,28.5,29.78,SSW,203,5.8,11.9,46,0.00,,,0.00,WUHU216HW,2013-05-13 16:21:00,
2013-05-13 12:26:00,48.1,27.5,29.78,South,180,7.8,9.8,45,0.00,,,0.00,WUHU216HW,2013-05-13 16:26:00,
2013-05-13 12:31:00,47.5,27.6,29.78,SW,225,6.5,13.4,46,0.00,,,0.00,WUHU216HW,2013-05-13 16:31:00,
2013-05-13 12:36:00,47.9,27.9,29.78,SSW,203,7.6,13.4,46,0.00,,,0.00,WUHU216HW,2013-05-13 16:36:00,
2013-05-13 12:41:00,48.8,29.4,29.78,WSW,248,3.4,12.8,47,0.00,,,0.00,WUHU216HW,2013-05-13 16:41:00,
2013-05-13 12:46:00,49.3,29.4,29.78,SSW,203,8.3,12.8,46,0.00,,,0.00,WUHU216HW,2013-05-13 16:46:00,
2013-05-13 12:51:00,49.5,28.4,29.78,SW,225,7.8,10.5,44,0.00,,,0.00,WUHU216HW,2013-05-13 16:51:00,
2013-05-13 12:56:00,49.0,28.5,29.79,SW,225,3.4,10.5,45,0.00,,,0.00,WUHU216HW,2013-05-13 16:56:00,
2013-05-13 13:01:00,48.6,27.6,29.79,SW,225,3.4,9.2,44,0.00,,,0.00,WUHU216HW,2013-05-13 17:01:00,
2013-05-13 13:06:00,48.6,28.6,29.79,SSW,203,8.3,11.2,46,0.00,,,0.00,WUHU216HW,2013-05-13 17:06:00,
2013-05-13 13:11:00,48.6,28.6,29.80,WSW,248,4.0,11.2,46,0.00,,,0.00,WUHU216HW,2013-05-13 17:11:00,
2013-05-13 13:16:00,48.2,28.3,29.80,SW,225,5.1,9.2,46,0.00,,,0.00,WUHU216HW,2013-05-13 17:16:00,
2013-05-13 13:21:00,48.8,29.4,29.80,WSW,248,3.6,9.2,47,0.00,,,0.00,WUHU216HW,2013-05-13 17:21:00,
2013-05-13 13:26:00,49.3,29.4,29.80,SW,225,5.4,7.8,46,0.00,,,0.00,WUHU216HW,2013-05-13 17:26:00,
2013-05-13 13:31:00,49.0,27.9,29.80,SSW,203,9.2,9.2,44,0.00,,,0.00,WUHU216HW,2013-05-13 17:31:00,
2013-05-13 13:36:00,48.6,28.6,29.80,SW,225,6.9,9.8,46,0.00,,,0.00,WUHU216HW,2013-05-13 17:36:00,
2013-05-13 13:41:00,48.2,28.3,29.80,South,180,10.1,16.3,46,0.00,,,0.00,WUHU216HW,2013-05-13 17:41:00,
2013-05-13 13:46:00,48.6,28.6,29.80,South,180,6.9,16.3,46,0.00,,,0.00,WUHU216HW,2013-05-13 17:46:00,
2013-05-13 13:51:00,49.1,28.6,29.80,SSW,203,4.7,9.8,45,0.00,,,0.00,WUHU216HW,2013-05-13 17:51:00,
2013-05-13 13:56:00,48.6,27.6,29.80,SSW,203,11.6,23.0,44,0.00,,,0.00,WUHU216HW,2013-05-13 17:56:00,
2013-05-13 14:01:00,47.7,28.4,29.81,SW,225,6.3,23.0,47,0.00,,,0.00,WUHU216HW,2013-05-13 18:01:00,
2013-05-13 14:06:00,47.2,29.4,29.81,SSW,203,8.1,13.2,50,0.00,,,0.00,WUHU216HW,2013-05-13 18:06:00,
2013-05-13 14:11:00,47.3,30.1,29.81,SSW,203,2.9,10.1,51,0.00,,,0.00,WUHU216HW,2013-05-13 18:11:00,
2013-05-13 14:16:00,47.9,30.6,29.81,SSW,203,3.6,9.2,51,0.00,,,0.00,WUHU216HW,2013-05-13 18:16:00,
2013-05-13 14:21:00,48.4,30.6,29.81,WSW,248,4.9,7.4,50,0.00,,,0.00,WUHU216HW,2013-05-13 18:21:00,
2013-05-13 14:26:00,48.6,30.3,29.81,SW,225,3.1,7.4,49,0.00,,,0.00,WUHU216HW,2013-05-13 18:26:00,
2013-05-13 14:31:00,48.2,29.9,29.82,WNW,293,1.6,7.4,49,0.00,,,0.00,WUHU216HW,2013-05-13 18:31:00,
2013-05-13 14:36:00,48.1,30.2,29.82,WSW,248,4.5,7.2,50,0.00,,,0.00,WUHU216HW,2013-05-13 18:36:00,
2013-05-13 14:41:00,47.7,30.4,29.82,West,270,6.9,8.9,51,0.00,,,0.00,WUHU216HW,2013-05-13 18:41:00,
2013-05-13 14:46:00,48.1,30.7,29.82,WNW,293,2.9,8.9,51,0.00,,,0.00,WUHU216HW,2013-05-13 18:46:00,
2013-05-13 14:51:00,48.8,31.4,29.82,SW,225,11.6,11.6,51,0.00,,,0.00,WUHU216HW,2013-05-13 18:51:00,
2013-05-13 14:56:00,48.4,31.1,29.82,SSW,203,12.8,13.9,51,0.00,,,0.00,WUHU216HW,2013-05-13 18:56:00,
2013-05-13 15:01:00,48.1,32.6,29.83,SSW,203,12.8,19.7,55,0.00,,,0.00,WUHU216HW,2013-05-13 19:01:00,
2013-05-13 15:06:00,49.7,33.2,29.82,South,180,2.9,19.7,53,0.00,,,0.00,WUHU216HW,2013-05-13 19:06:00,
2013-05-13 15:11:00,50.8,32.9,29.82,SW,225,0.9,12.8,50,0.00,,,0.00,WUHU216HW,2013-05-13 19:11:00,
2013-05-13 15:16:00,50.2,32.4,29.83,WSW,248,4.0,18.8,50,0.00,,,0.00,WUHU216HW,2013-05-13 19:16:00,
2013-05-13 15:21:00,49.7,33.7,29.82,WSW,248,11.2,18.8,54,0.00,,,0.00,WUHU216HW,2013-05-13 19:21:00,
2013-05-13 15:26:00,50.0,33.6,29.82,SSW,203,10.3,12.8,53,0.00,,,0.00,WUHU216HW,2013-05-13 19:26:00,
2013-05-13 15:31:00,50.2,33.3,29.82,SSW,203,11.0,14.8,52,0.00,,,0.00,WUHU216HW,2013-05-13 19:31:00,
2013-05-13 15:36:00,50.4,32.0,29.82,SW,225,4.9,14.8,49,0.00,,,0.00,WUHU216HW,2013-05-13 19:36:00,
2013-05-13 15:41:00,49.9,31.5,29.82,WSW,248,8.5,12.8,49,0.00,,,0.00,WUHU216HW,2013-05-13 19:41:00,
2013-05-13 15:46:00,49.7,31.9,29.82,South,180,8.1,10.7,50,0.00,,,0.00,WUHU216HW,2013-05-13 19:46:00,
2013-05-13 15:51:00,50.0,32.2,29.82,SSW,203,8.5,10.7,50,0.00,,,0.00,WUHU216HW,2013-05-13 19:51:00,
2013-05-13 15:56:00,50.9,32.5,29.82,SW,225,4.3,10.3,49,0.00,,,0.00,WUHU216HW,2013-05-13 19:56:00,
2013-05-13 16:01:00,50.2,32.4,29.82,SW,225,4.5,8.7,50,0.00,,,0.00,WUHU216HW,2013-05-13 20:01:00,
2013-05-13 16:06:00,49.3,31.5,29.82,SSW,203,3.1,7.2,50,0.00,,,0.00,WUHU216HW,2013-05-13 20:06:00,
2013-05-13 16:11:00,49.1,32.2,29.83,SW,225,4.9,7.2,52,0.00,,,0.00,WUHU216HW,2013-05-13 20:11:00,
2013-05-13 16:16:00,48.8,31.9,29.83,SW,225,5.4,9.2,52,0.00,,,0.00,WUHU216HW,2013-05-13 20:16:00,
2013-05-13 16:22:00,48.6,32.7,29.83,SSW,203,5.1,9.2,54,0.00,,,0.00,WUHU216HW,2013-05-13 20:22:00,
2013-05-13 16:27:00,49.3,33.3,29.83,SSW,203,5.8,9.2,54,0.00,,,0.00,WUHU216HW,2013-05-13 20:27:00,
2013-05-13 16:32:00,49.5,32.6,29.83,SSW,203,2.9,9.2,52,0.00,,,0.00,WUHU216HW,2013-05-13 20:32:00,
2013-05-13 16:37:00,50.0,33.6,29.83,WSW,248,3.4,7.6,53,0.00,,,0.00,WUHU216HW,2013-05-13 20:37:00,
2013-05-13 16:42:00,50.2,32.4,29.83,West,270,4.0,8.7,50,0.00,,,0.00,WUHU216HW,2013-05-13 20:42:00,
2013-05-13 16:47:00,49.7,31.9,29.83,WSW,248,4.9,8.7,50,0.00,,,0.00,WUHU216HW,2013-05-13 20:47:00,
2013-05-13 16:52:00,49.5,31.7,29.83,SSW,203,6.3,7.6,50,0.00,,,0.00,WUHU216HW,2013-05-13 20:52:00,
2013-05-13 16:57:00,49.3,32.0,29.83,South,180,6.7,7.6,51,0.00,,,0.00,WUHU216HW,2013-05-13 20:57:00,
2013-05-13 17:03:00,49.7,32.8,29.83,SSW,203,4.0,9.8,52,0.00,,,0.00,WUHU216HW,2013-05-13 21:03:00,
2013-05-13 17:08:00,50.9,32.5,29.83,SSW,203,4.9,9.8,49,0.00,,,0.00,WUHU216HW,2013-05-13 21:08:00,
2013-05-13 17:14:00,50.4,32.0,29.83,SW,225,4.5,8.7,49,0.00,,,0.00,WUHU216HW,2013-05-13 21:14:00,
2013-05-13 17:20:00,49.1,31.3,29.83,SW,225,4.7,8.3,50,0.00,,,0.00,WUHU216HW,2013-05-13 21:20:00,
2013-05-13 17:25:00,49.0,32.0,29.83,SW,225,5.6,10.5,52,0.00,,,0.00,WUHU216HW,2013-05-13 21:25:00,
2013-05-13 17:30:00,49.3,32.0,29.83,WSW,248,1.3,10.5,51,0.00,,,0.00,WUHU216HW,2013-05-13 21:30:00,
2013-05-13 17:35:00,49.9,32.0,29.83,WSW,248,4.5,10.1,50,0.00,,,0.00,WUHU216HW,2013-05-13 21:35:00,
2013-05-13 17:40:00,49.3,31.5,29.83,WSW,248,3.4,6.9,50,0.00,,,0.00,WUHU216HW,2013-05-13 21:40:00,
2013-05-13 17:45:00,49.7,31.9,29.83,WSW,248,2.0,6.9,50,0.00,,,0.00,WUHU216HW,2013-05-13 21:45:00,
2013-05-13 17:50:00,50.2,31.9,29.84,WSW,248,4.0,8.5,49,0.00,,,0.00,WUHU216HW,2013-05-13 21:50:00,
2013-05-13 17:56:00,50.0,31.2,29.83,SW,225,5.4,9.2,48,0.00,,,0.00,WUHU216HW,2013-05-13 21:56:00,
2013-05-13 18:01:00,49.5,30.1,29.83,SSW,203,3.4,9.2,47,0.00,,,0.00,WUHU216HW,2013-05-13 22:01:00,
2013-05-13 18:06:00,49.0,30.1,29.83,WSW,248,7.4,10.3,48,0.00,,,0.00,WUHU216HW,2013-05-13 22:06:00,
2013-05-13 18:11:00,48.4,29.5,29.83,SW,225,3.8,10.3,48,0.00,,,0.00,WUHU216HW,2013-05-13 22:11:00,
2013-05-13 18:16:00,48.4,30.1,29.83,SW,225,4.3,6.3,49,0.00,,,0.00,WUHU216HW,2013-05-13 22:16:00,
2013-05-13 18:22:00,49.0,30.6,29.83,WSW,248,4.0,6.3,49,0.00,,,0.00,WUHU216HW,2013-05-13 22:22:00,
2013-05-13 18:27:00,49.1,30.8,29.84,SW,225,2.2,4.9,49,0.00,,,0.00,WUHU216HW,2013-05-13 22:27:00,
2013-05-13 18:32:00,49.0,30.6,29.83,WSW,248,2.5,4.5,49,0.00,,,0.00,WUHU216HW,2013-05-13 22:32:00,
2013-05-13 18:37:00,49.3,31.0,29.83,SSW,203,3.6,6.3,49,0.00,,,0.00,WUHU216HW,2013-05-13 22:37:00,
2013-05-13 18:46:00,50.8,31.8,29.83,SW,225,1.8,6.3,48,0.00,,,0.00,WUHU216HW,2013-05-13 22:46:00,
2013-05-13 18:52:00,52.2,30.8,29.84,SSW,203,5.4,5.4,44,0.00,,,0.00,WUHU216HW,2013-05-13 22:52:00,
2013-05-13 18:58:00,51.3,30.0,29.84,South,180,4.5,5.6,44,0.00,,,0.00,WUHU216HW,2013-05-13 22:58:00,
2013-05-13 19:03:00,48.6,29.2,29.84,WSW,248,1.1,6.0,47,0.00,,,0.00,WUHU216HW,2013-05-13 23:03:00,
2013-05-13 19:09:00,47.9,28.4,29.84,WSW,248,1.1,6.3,47,0.00,,,0.00,WUHU216HW,2013-05-13 23:09:00,
2013-05-13 19:15:00,47.5,28.2,29.85,West,270,2.7,5.6,47,0.00,,,0.00,WUHU216HW,2013-05-13 23:15:00,
2013-05-13 19:20:00,47.3,27.5,29.85,West,270,4.0,5.6,46,0.00,,,0.00,WUHU216HW,2013-05-13 23:20:00,
2013-05-13 19:25:00,47.0,27.1,29.85,WSW,248,5.1,6.9,46,0.00,,,0.00,WUHU216HW,2013-05-13 23:25:00,
2013-05-13 19:30:00,46.6,27.4,29.85,WNW,293,1.3,6.9,47,0.00,,,0.00,WUHU216HW,2013-05-13 23:30:00,
2013-05-13 19:36:00,46.4,27.2,29.85,WSW,248,3.1,5.6,47,0.00,,,0.00,WUHU216HW,2013-05-13 23:36:00,
2013-05-13 19:42:00,46.3,27.5,29.86,West,270,0.9,4.0,48,0.00,,,0.00,WUHU216HW,2013-05-13 23:42:00,
2013-05-13 19:47:00,46.1,27.9,29.86,WSW,248,0.0,2.0,49,0.00,,,0.00,WUHU216HW,2013-05-13 23:47:00,
2013-05-13 19:53:00,45.7,28.2,29.86,WNW,293,0.2,2.5,50,0.00,,,0.00,WUHU216HW,2013-05-13 23:53:00,
2013-05-13 19:59:00,45.2,27.6,29.86,West,270,0.0,2.5,50,0.00,,,0.00,WUHU216HW,2013-05-13 23:59:00,
2013-05-13 20:07:00,44.8,27.8,29.87,West,270,4.0,4.0,51,0.00,,,0.00,WUHU216HW,2013-05-14 00:07:00,
2013-05-13 20:13:00,44.6,27.6,29.87,WNW,293,1.1,4.7,51,0.00,,,0.00,WUHU216HW,2013-05-14 00:13:00,
2013-05-13 20:18:00,44.6,27.6,29.87,West,270,1.6,3.6,51,0.00,,,0.00,WUHU216HW,2013-05-14 00:18:00,
2013-05-13 20:23:00,44.6,27.6,29.87,West,270,0.9,4.0,51,0.00,,,0.00,WUHU216HW,2013-05-14 00:23:00,
2013-05-13 20:28:00,44.6,28.1,29.87,SW,225,2.9,4.0,52,0.00,,,0.00,WUHU216HW,2013-05-14 00:28:00,
2013-05-13 20:33:00,44.6,28.1,29.88,WSW,248,2.5,2.9,52,0.00,,,0.00,WUHU216HW,2013-05-14 00:33:00,
2013-05-13 20:39:00,44.5,27.9,29.88,WSW,248,0.0,2.9,52,0.00,,,0.00,WUHU216HW,2013-05-14 00:39:00,
2013-05-13 20:44:00,44.3,28.2,29.88,SW,225,1.1,1.6,53,0.00,,,0.00,WUHU216HW,2013-05-14 00:44:00,
2013-05-13 20:49:00,44.1,28.0,29.88,WSW,248,0.2,1.6,53,0.00,,,0.00,WUHU216HW,2013-05-14 00:49:00,
2013-05-13 20:54:00,43.9,27.9,29.88,NW,315,1.1,1.1,53,0.00,,,0.00,WUHU216HW,2013-05-14 00:54:00,
2013-05-13 20:59:00,43.6,28.0,29.89,WNW,293,0.4,1.1,54,0.00,,,0.00,WUHU216HW,2013-05-14 00:59:00,
2013-05-13 21:04:00,43.2,29.3,29.89,NW,315,1.8,1.8,58,0.00,,,0.00,WUHU216HW,2013-05-14 01:04:00,
2013-05-13 21:10:00,42.8,28.6,29.89,NW,315,2.0,2.0,57,0.00,,,0.00,WUHU216HW,2013-05-14 01:10:00,
2013-05-13 21:15:00,42.5,28.7,29.89,NNW,338,0.4,2.5,58,0.00,,,0.00,WUHU216HW,2013-05-14 01:15:00,
2013-05-13 21:20:00,42.1,28.4,29.89,NW,315,0.4,1.6,58,0.00,,,0.00,WUHU216HW,2013-05-14 01:20:00,
2013-05-13 21:25:00,41.6,28.3,29.90,NNW,338,0.7,1.3,59,0.00,,,0.00,WUHU216HW,2013-05-14 01:25:00,
2013-05-13 21:30:00,41.2,28.5,29.90,NW,315,0.4,1.3,60,0.00,,,0.00,WUHU216HW,2013-05-14 01:30:00,
2013-05-13 21:38:00,41.0,28.6,29.90,NNE,23,0.9,1.1,61,0.00,,,0.00,WUHU216HW,2013-05-14 01:38:00,
2013-05-13 21:43:00,40.3,28.3,29.90,North,0,0.9,1.1,62,0.00,,,0.00,WUHU216HW,2013-05-14 01:43:00,
2013-05-13 21:49:00,39.6,28.0,29.90,North,0,1.1,1.1,63,0.00,,,0.00,WUHU216HW,2013-05-14 01:49:00,
2013-05-13 21:56:00,39.6,28.0,29.90,North,0,0.0,1.1,63,0.00,,,0.00,WUHU216HW,2013-05-14 01:56:00,
2013-05-13 22:01:00,38.7,27.1,29.91,ESE,113,0.0,0.0,63,0.00,,,0.00,WUHU216HW,2013-05-14 02:01:00,
2013-05-13 22:09:00,38.2,27.0,29.91,NW,315,0.0,1.1,64,0.00,,,0.00,WUHU216HW,2013-05-14 02:09:00,
2013-05-13 22:14:00,37.4,26.7,29.92,NNW,338,0.7,1.1,65,0.00,,,0.00,WUHU216HW,2013-05-14 02:14:00,
2013-05-13 22:24:00,37.1,26.7,29.92,NNW,338,0.0,0.7,66,0.00,,,0.00,WUHU216HW,2013-05-14 02:24:00,
2013-05-13 22:29:00,36.4,26.8,29.93,NW,315,0.4,0.9,68,0.00,,,0.00,WUHU216HW,2013-05-14 02:29:00,
2013-05-13 22:34:00,36.2,27.0,29.93,North,0,0.0,1.1,69,0.00,,,0.00,WUHU216HW,2013-05-14 02:34:00,
2013-05-13 22:39:00,36.0,26.8,29.94,North,0,0.0,1.1,69,0.00,,,0.00,WUHU216HW,2013-05-14 02:39:00,
2013-05-13 22:46:00,35.6,27.2,29.94,NNW,338,0.4,0.7,71,0.00,,,0.00,WUHU216HW,2013-05-14 02:46:00,
2013-05-13 22:51:00,35.5,27.0,29.94,NNW,338,0.0,0.7,71,0.00,,,0.00,WUHU216HW,2013-05-14 02:51:00,
2013-05-13 22:57:00,35.5,27.0,29.94,WNW,293,0.4,0.9,71,0.00,,,0.00,WUHU216HW,2013-05-14 02:57:00,
2013-05-13 23:02:00,35.6,27.2,29.95,NNE,23,0.2,0.9,71,0.00,,,0.00,WUHU216HW,2013-05-14 03:02:00,
2013-05-13 23:08:00,35.5,27.6,29.95,North,0,0.7,2.2,73,0.00,,,0.00,WUHU216HW,2013-05-14 03:08:00,
2013-05-13 23:13:00,35.5,27.6,29.95,NNE,23,1.1,2.2,73,0.00,,,0.00,WUHU216HW,2013-05-14 03:13:00,
2013-05-13 23:18:00,35.6,27.8,29.95,WNW,293,1.1,2.2,73,0.00,,,0.00,WUHU216HW,2013-05-14 03:18:00,
2013-05-13 23:24:00,35.8,28.0,29.95,West,270,0.7,2.2,73,0.00,,,0.00,WUHU216HW,2013-05-14 03:24:00,
2013-05-13 23:29:00,36.4,28.8,29.94,North,0,0.9,1.1,74,0.00,,,0.00,WUHU216HW,2013-05-14 03:29:00,
2013-05-13 23:34:00,36.4,28.8,29.94,South,180,1.8,1.8,74,0.00,,,0.00,WUHU216HW,2013-05-14 03:34:00,
2013-05-13 23:39:00,36.5,29.3,29.94,SE,135,1.8,1.8,75,0.00,,,0.00,WUHU216HW,2013-05-14 03:39:00,
2013-05-13 23:46:00,36.9,30.3,29.94,North,0,0.0,2.0,77,0.00,,,0.00,WUHU216HW,2013-05-14 03:46:00,
2013-05-13 23:51:00,37.3,30.7,29.94,NNE,23,0.4,2.9,77,0.00,,,0.00,WUHU216HW,2013-05-14 03:51:00,
2013-05-13 23:57:00,37.1,30.5,29.94,WSW,248,1.3,2.9,77,0.00,,,0.00,WUHU216HW,2013-05-14 03:57:00,